This is the latest recevied weather packets stored in our database for station/object KE8WAY. If no packets are shown the sender has not sent any weather packets the latest 10 day(s).
| Time | Temp. | Humidity | Pressure | Rain* | Wind** | Luminosity | Snow |
|---|---|---|---|---|---|---|---|
| 1778163578 | 11.11° C | 52% | 1012.5 hPa | 0 mm | - | 655 W/m² | - |
| 1778163273 | 11.11° C | 53% | 1012.6 hPa | 0 mm | - | 645 W/m² | - |
| 1778162970 | 11.11° C | 58% | 1012.6 hPa | 0 mm | - | 622 W/m² | - |
| 1778162667 | 11.11° C | 54% | 1012.6 hPa | 0 mm | - | 577 W/m² | - |
| 1778162365 | 10.56° C | 58% | 1012.7 hPa | 0 mm | - | 570 W/m² | - |
| 1778162061 | 10.56° C | 57% | 1012.7 hPa | 0 mm | - | 545 W/m² | - |
| 1778161759 | 10° C | 59% | 1012.9 hPa | 0 mm | - | 547 W/m² | - |
| 1778161455 | 10.56° C | 61% | 1012.6 hPa | 0 mm | - | 498 W/m² | - |
| 1778161151 | 10° C | 63% | 1012.9 hPa | 0 mm | - | 476 W/m² | - |
| 1778160846 | 10° C | 61% | 1012.9 hPa | 0 mm | - | 402 W/m² | - |
| 1778160540 | 10° C | 62% | 1012.9 hPa | 0 mm | - | 377 W/m² | - |
| 1778160236 | 9.44° C | 62% | 1012.7 hPa | 0 mm | - | 347 W/m² | - |
| 1778159933 | 9.44° C | 63% | 1013 hPa | 0 mm | - | 328 W/m² | - |
| 1778159630 | 9.44° C | 64% | 1012.9 hPa | 0 mm | - | 319 W/m² | - |
| 1778159327 | 8.89° C | 66% | 1012.9 hPa | 0 mm | - | 311 W/m² | - |
| 1778159023 | 8.89° C | 65% | 1013.1 hPa | 0 mm | - | 277 W/m² | - |
| 1778158723 | 8.89° C | 66% | 1012.7 hPa | 0 mm | - | 271 W/m² | - |
| 1778158419 | 8.33° C | 67% | 1012.8 hPa | 0 mm | - | 261 W/m² | - |
| 1778158117 | 8.33° C | 68% | 1012.9 hPa | 0 mm | - | 169 W/m² | - |
| 1778157813 | 8.33° C | 69% | 1012.9 hPa | 0 mm | - | 160 W/m² | - |
| 1778157512 | 8.33° C | 72% | 1012.9 hPa | 0 mm | - | 220 W/m² | - |
| 1778157208 | 8.33° C | 71% | 1012.9 hPa | 0 mm | - | 195 W/m² | - |
| 1778156905 | 7.78° C | 71% | 1012.8 hPa | 0 mm | - | 151 W/m² | - |
| 1778156600 | 7.78° C | 70% | 1012.9 hPa | 0 mm | - | 164 W/m² | - |
| 1778156296 | 7.78° C | 72% | 1013 hPa | 0 mm | - | 143 W/m² | - |
* Rain latest hour (hover to see other rain measurements)
** Current wind speed in m/s (hover to see current wind gust speed)